This is the latest recevied weather packets stored in our database for station/object GBTWP-2. If no packets are shown the sender has not sent any weather packets the latest 10 day(s).
| Time | Temp. | Humidity | Pressure | Rain* | Wind** | Luminosity | Snow |
|---|---|---|---|---|---|---|---|
| 1777720802 | 1.11° C | 90% | 1020.3 hPa | 0 mm | - | 19 W/m² | - |
| 1777720501 | 0.56° C | 92% | 1020.2 hPa | 0 mm | - | 18 W/m² | - |
| 1777719602 | 0° C | 93% | 1020.2 hPa | 0 mm | - | 9 W/m² | - |
| 1777718401 | 0° C | 93% | 1020.3 hPa | 0 mm | - | 4 W/m² | - |
| 1777718102 | 0° C | 93% | 1020.1 hPa | 0 mm | - | 3 W/m² | - |
| 1777717802 | 0° C | 93% | 1020 hPa | 0 mm | - | 2 W/m² | - |
| 1777717502 | 0° C | 93% | 1020.1 hPa | 0 mm | - | 1 W/m² | - |
| 1777717202 | 0° C | 93% | 1020 hPa | 0 mm | - | 1 W/m² | - |
| 1777716902 | 0° C | 93% | 1020 hPa | 0 mm | - | 0 W/m² | - |
| 1777716602 | 0° C | 93% | 1019.9 hPa | 0 mm | - | 0 W/m² | - |
| 1777716002 | 0° C | 92% | 1019.9 hPa | 0 mm | - | 0 W/m² | - |
| 1777715701 | 0° C | 92% | 1019.8 hPa | 0 mm | - | 0 W/m² | - |
| 1777715402 | 0° C | 92% | 1019.7 hPa | 0 mm | - | 0 W/m² | - |
| 1777715102 | 0° C | 92% | 1019.7 hPa | 0 mm | - | 0 W/m² | - |
| 1777713902 | 0° C | 92% | 1019.6 hPa | 0 mm | - | 0 W/m² | - |
| 1777713001 | 0.56° C | 91% | 1019.6 hPa | 0 mm | - | 0 W/m² | - |
| 1777712702 | 0.56° C | 90% | 1019.8 hPa | 0 mm | - | 0 W/m² | - |
| 1777712402 | 0.56° C | 90% | 1019.6 hPa | 0 mm | - | 0 W/m² | - |
| 1777712102 | 0.56° C | 90% | 1019.7 hPa | 0 mm | - | 0 W/m² | - |
| 1777711501 | 1.11° C | 89% | 1019.6 hPa | 0 mm | - | 0 W/m² | - |
| 1777710602 | 1.11° C | 88% | 1019.5 hPa | 0 mm | - | 0 W/m² | - |
| 1777710302 | 1.11° C | 87% | 1019.6 hPa | 0 mm | - | 0 W/m² | - |
| 1777710002 | 1.11° C | 87% | 1019.5 hPa | 0 mm | - | 0 W/m² | - |
| 1777709702 | 1.11° C | 87% | 1019.5 hPa | 0 mm | - | 0 W/m² | - |
| 1777709402 | 1.67° C | 86% | 1019.5 hPa | 0 mm | - | 0 W/m² | - |
* Rain latest hour (hover to see other rain measurements)
** Current wind speed in m/s (hover to see current wind gust speed)